Theta_e
313 313 313 314 315 316 315 317 317 315 316 311 312 312 313 317 317 318 317 318 317 330 337 334 338 334 333 334 339 340 338 343 343 336 333 343 342 340 340 335 337 339 341 343 344 345 344 340 336 335 334 337 340 338 337 340 341 342 343 342 343 342 342 342 342 341 342 342 342 342 341 342 341 341 340 340 340 339 337 335 336 337 337 336 331 331 332 332 331 327 323 321 321 327 329 329 330
313 313 313 314 315 316 316 317 316 314 313 310 311 313 314 317 318 317 316 318 316 320 327 329 330 331 337 338 339 339 340 344 345 343 342 342 340 341 338 335 337 341 343 342 344 345 344 342 337 336 334 335 339 340 339 340 341 342 342 342 342 342 342 342 342 342 342 342 342 342 341 341 341 341 340 340 339 338 336 335 336 337 337 335 334 334 333 332 332 331 327 324 319 322 329 330 328
312 313 314 315 315 315 316 316 315 312 311 310 311 315 316 316 317 317 317 317 317 317 317 320 322 332 339 337 339 337 342 345 343 343 340 340 341 340 338 337 338 341 342 342 345 344 345 342 337 336 335 337 338 339 340 340 342 342 342 342 342 342 342 342 342 342 342 342 342 341 340 341 340 340 340 339 339 338 336 336 336 335 336 334 335 335 334 333 332 332 330 330 325 323 329 327 325
312 313 314 315 316 316 318 317 316 312 310 310 311 315 317 316 318 316 317 315 317 316 314 320 322 333 336 332 338 339 344 346 345 343 340 341 340 340 339 339 339 341 342 343 344 344 344 342 338 337 337 338 339 339 339 340 342 342 342 342 342 342 341 342 342 342 342 341 341 340 340 339 339 339 338 338 340 339 336 336 337 337 335 331 332 333 333 334 335 334 333 334 331 326 325 325 327
312 314 314 314 316 317 317 315 315 312 311 313 311 315 317 316 318 316 316 314 316 315 314 322 322 331 338 338 341 343 346 346 346 344 342 341 340 340 340 340 340 341 342 342 343 344 344 342 338 338 338 339 340 339 339 341 342 341 342 342 342 341 341 342 342 342 341 341 340 341 340 339 338 338 337 337 339 338 336 336 337 336 333 329 330 332 333 335 336 336 335 334 330 325 325 328 330
313 315 315 314 315 315 315 313 312 312 314 316 314 315 318 316 317 316 315 313 316 316 314 317 322 329 336 343 344 346 345 346 346 344 343 342 339 340 340 340 341 341 341 342 343 343 344 342 339 339 338 339 340 339 339 341 341 342 342 342 342 341 341 341 342 341 341 341 340 341 340 339 338 338 337 337 337 336 334 333 333 333 333 332 332 332 332 334 335 335 334 332 327 326 328 330 331
313 314 315 315 314 314 315 313 311 313 314 315 316 316 317 316 316 316 315 315 316 320 319 320 331 328 329 342 344 344 342 344 345 344 343 341 340 340 340 339 340 340 341 341 342 343 343 341 339 339 338 338 339 339 340 341 342 342 342 342 342 342 341 341 341 341 341 340 340 340 339 339 339 338 338 337 336 335 333 332 331 331 332 331 332 333 333 334 334 333 330 328 327 328 329 330 331
313 314 314 315 316 314 315 313 313 314 313 313 315 316 318 317 315 315 315 316 314 318 323 329 337 325 326 340 341 345 342 343 344 344 342 341 341 340 339 339 340 340 340 341 341 343 343 341 340 339 338 338 338 338 340 341 342 342 342 342 341 342 341 341 341 341 341 340 340 339 339 340 339 338 337 337 336 335 334 333 331 329 328 328 330 331 331 330 329 328 326 326 327 328 329 330 330
313 313 313 315 315 313 313 313 313 313 313 313 313 316 319 317 315 316 316 316 315 315 315 323 331 323 328 339 341 344 342 343 342 343 342 341 341 339 339 339 340 340 340 340 341 343 342 341 340 339 339 339 338 338 340 341 342 342 342 342 341 341 341 341 341 341 341 340 340 339 339 339 339 338 337 337 336 334 334 334 330 325 326 327 328 328 325 324 323 324 325 325 327 328 329 330 330
313 312 314 315 314 312 311 311 313 313 314 314 313 315 316 315 315 315 315 315 315 314 317 325 328 325 326 335 344 344 341 343 342 342 342 341 340 339 338 339 340 340 339 339 341 343 342 341 339 339 339 338 338 338 341 342 342 342 341 341 341 341 340 341 341 341 340 340 340 339 339 337 338 337 336 336 335 334 334 332 327 325 326 327 328 327 324 321 321 323 323 324 326 328 328 329 330
314 312 312 314 312 311 311 311 313 313 313 313 313 315 314 314 314 314 315 315 316 313 319 326 325 326 329 338 345 341 341 342 342 342 341 340 340 339 338 339 339 339 339 339 341 343 342 341 339 339 339 338 336 338 341 342 342 342 341 341 341 340 340 340 340 340 339 339 338 338 336 335 336 336 335 334 333 334 333 329 324 325 326 327 328 327 325 322 321 322 323 324 326 327 328 329 329
314 313 313 313 312 311 312 312 313 314 313 312 314 315 314 314 313 315 315 314 315 312 316 321 323 324 332 348 345 340 341 342 342 342 341 340 339 339 339 338 339 338 338 340 341 342 342 341 340 339 339 338 336 338 341 342 342 341 341 341 340 340 339 340 340 339 337 335 334 333 330 329 331 332 331 330 331 332 331 326 323 325 326 327 328 328 327 323 322 322 323 325 326 327 327 328 329
313 313 314 313 313 313 313 313 313 316 314 312 315 314 313 315 314 316 316 315 315 314 315 318 327 324 332 350 344 339 342 341 341 341 340 340 339 339 338 338 338 338 338 340 342 341 341 342 341 340 339 338 337 338 341 342 342 341 341 340 340 339 339 339 338 336 333 330 329 326 322 320 320 321 320 321 324 327 325 320 321 324 325 326 328 328 328 325 324 323 324 325 326 327 327 327 328
313 312 314 313 313 314 313 312 312 314 314 313 314 313 313 314 315 315 314 315 312 313 316 319 327 324 334 343 341 340 341 340 341 340 340 340 339 338 338 338 337 338 339 340 341 341 341 342 341 340 340 338 337 338 340 342 341 341 341 339 339 338 338 337 334 332 331 330 328 323 318 316 314 313 313 312 313 316 315 313 320 324 324 326 327 328 328 327 326 324 325 326 326 327 326 327 327
312 311 313 314 312 312 312 312 312 312 313 314 314 313 313 313 315 313 313 315 317 325 326 328 330 324 334 338 339 341 340 341 340 340 340 339 338 338 338 338 338 338 339 340 340 340 341 342 341 340 340 339 338 338 340 341 341 340 340 339 338 338 337 334 333 333 332 330 325 320 317 314 313 311 310 310 309 310 309 311 318 323 324 326 327 327 327 327 327 326 326 326 326 326 326 326 325
311 311 314 313 311 311 312 313 313 312 312 314 314 313 313 314 314 312 314 310 319 338 339 339 339 334 339 338 337 341 340 341 340 340 340 339 338 338 338 338 338 339 339 339 340 340 341 341 341 340 340 339 339 340 341 342 341 340 340 339 338 337 335 333 334 333 330 327 323 319 316 319 319 314 312 311 310 309 308 309 315 321 324 325 326 327 327 326 326 326 325 324 324 324 324 324 323
310 312 314 312 311 310 311 312 312 312 313 313 312 312 313 314 312 311 320 319 324 343 344 342 343 342 343 342 341 341 340 340 339 340 339 339 338 338 338 338 339 339 339 339 340 340 340 341 340 340 340 339 340 341 342 342 341 341 341 340 338 336 334 334 334 331 330 328 325 320 319 324 325 321 319 315 312 310 308 308 311 318 323 325 325 326 325 325 324 323 322 323 323 324 323 323 323
311 313 313 311 312 311 312 313 312 313 314 313 311 311 313 315 313 311 324 338 340 344 344 342 342 340 341 341 341 340 340 340 339 339 339 339 338 338 337 337 338 338 338 339 339 340 340 340 340 340 340 338 340 340 341 342 342 342 341 340 339 338 336 335 333 331 332 331 329 326 325 327 328 328 326 321 319 317 311 308 309 316 322 324 324 325 324 323 323 323 325 327 328 328 328 327 327
312 314 312 312 313 312 312 313 312 314 315 314 312 311 313 313 315 311 317 339 345 346 347 342 341 340 339 340 340 340 340 340 339 339 339 339 338 337 337 337 337 337 338 338 339 339 340 340 339 340 339 339 340 340 341 342 342 342 341 341 339 339 338 335 333 334 335 333 332 331 331 332 333 334 332 327 325 323 318 312 309 313 321 324 324 324 323 323 326 329 331 332 332 332 331 331 331
311 312 312 312 312 311 311 312 312 313 314 314 313 310 312 312 313 313 312 330 342 348 349 346 345 341 339 339 339 340 339 339 339 339 339 338 338 337 337 337 337 337 337 338 338 339 340 340 339 340 339 339 340 340 341 342 343 342 341 341 339 339 338 333 333 336 336 335 335 335 335 335 335 336 336 334 332 329 326 319 313 312 317 322 323 323 324 327 331 333 333 333 333 333 333 334 334
310 311 312 312 311 312 310 311 311 312 314 314 313 310 310 311 311 313 312 322 332 337 343 346 346 341 339 338 338 340 339 339 338 338 338 338 338 337 337 337 337 337 337 337 338 339 339 339 339 339 338 339 340 341 342 342 343 341 341 341 340 340 337 333 335 337 337 337 337 337 336 335 335 336 337 337 337 335 333 329 322 316 315 320 324 327 330 332 334 334 335 335 334 335 335 335 335
311 311 311 311 310 312 310 310 311 311 312 312 313 311 310 311 310 313 312 314 318 321 331 340 342 340 339 338 338 339 339 339 338 338 338 338 338 338 338 337 337 336 336 337 338 339 338 338 339 338 338 339 340 341 341 342 342 341 341 341 340 340 336 334 337 338 337 338 338 337 336 335 336 337 337 337 338 338 337 335 331 326 324 327 331 334 335 335 336 336 336 336 336 336 337 337 336
311 311 311 310 310 312 311 311 310 310 311 311 312 310 311 312 310 314 313 316 323 324 330 339 342 341 340 339 338 338 337 337 338 339 338 338 338 338 338 337 336 336 335 336 337 338 338 338 338 337 337 338 340 341 341 342 342 341 341 340 340 340 336 334 337 337 337 338 338 337 335 335 336 336 335 335 336 337 338 337 336 333 333 333 335 336 337 337 336 336 336 337 337 338 339 338 338
311 311 311 311 310 311 311 311 311 310 310 311 310 310 312 311 313 323 328 334 341 340 338 340 342 342 340 339 337 337 337 338 338 338 338 338 338 338 338 337 336 336 335 335 335 337 338 338 338 337 337 338 339 340 340 341 341 341 340 340 340 340 336 334 336 337 337 337 337 336 335 335 336 336 335 336 336 337 337 337 337 336 336 336 336 338 338 337 337 337 337 338 339 339 339 338 338
310 310 312 312 311 311 311 311 311 310 310 310 309 310 312 311 316 328 336 340 344 344 341 341 341 340 339 338 337 337 337 338 338 338 337 337 337 337 337 337 336 335 335 334 335 336 338 337 337 337 337 338 339 340 340 341 340 340 340 339 340 339 337 335 336 337 337 337 336 334 333 334 336 337 337 337 337 337 337 338 337 337 338 338 338 338 338 338 338 338 338 339 339 338 338 337 337
310 310 311 312 312 312 312 312 312 311 310 310 310 311 310 311 315 323 335 341 344 343 342 342 340 339 339 338 338 338 337 338 338 337 337 336 336 337 336 336 335 335 335 334 335 336 336 336 336 337 337 338 338 340 340 340 340 339 339 339 339 339 339 336 336 336 337 337 335 333 332 333 336 337 337 337 337 337 337 338 338 338 338 339 339 338 339 339 338 338 338 339 338 338 338 336 336
309 310 310 311 312 313 312 312 313 312 311 310 311 312 311 310 310 319 336 342 344 343 343 342 340 340 339 338 338 338 338 338 338 337 337 337 336 337 336 335 335 335 335 334 335 335 335 335 336 336 337 337 338 340 340 340 340 339 339 339 339 339 338 336 336 337 337 336 335 333 333 335 336 337 337 337 338 338 337 337 338 339 339 338 338 339 339 338 338 338 337 337 337 337 336 335 334
308 310 310 310 311 312 312 312 312 311 312 311 312 313 312 311 308 317 337 343 344 344 344 342 341 341 339 340 339 338 339 339 338 337 338 338 336 337 336 335 335 335 335 334 334 335 336 336 336 336 336 337 338 339 340 340 340 339 339 339 339 339 337 336 337 338 337 337 336 333 333 335 336 336 337 337 337 337 337 338 338 338 338 338 339 339 338 337 337 337 336 336 336 335 336 335 333
309 310 310 310 310 311 311 312 312 311 312 311 313 314 312 313 309 318 337 343 344 344 344 343 342 342 340 340 339 338 339 339 339 338 338 338 337 337 336 335 335 335 335 335 334 335 336 337 336 336 336 337 338 339 340 340 340 339 339 339 339 337 336 337 337 338 337 336 335 333 333 335 336 337 337 338 338 338 338 338 338 338 338 338 339 338 337 337 337 336 336 336 336 335 335 333 333
309 309 310 311 310 311 311 312 312 312 312 311 312 311 311 315 311 324 342 343 344 345 344 344 343 343 341 341 340 339 340 340 339 339 339 338 337 337 335 336 335 336 336 335 334 334 335 336 336 336 336 336 337 339 339 339 340 340 340 339 338 336 336 337 338 338 338 335 334 334 335 336 337 337 338 338 338 339 339 339 339 338 338 339 338 337 337 337 336 336 336 336 335 334 334 333 334
310 309 309 310 311 311 310 311 311 312 312 310 313 309 310 315 311 326 344 344 344 345 344 344 344 344 342 342 341 340 340 340 340 340 339 338 337 336 336 336 335 336 336 336 335 334 334 335 336 336 336 338 338 338 338 339 340 340 340 338 337 336 336 337 338 338 338 336 335 335 335 337 337 338 338 338 338 339 339 339 339 339 339 339 338 338 336 336 336 335 335 335 334 333 333 333 333
309 309 309 309 310 310 310 311 311 312 312 310 313 310 311 315 309 325 343 344 345 345 344 345 344 344 343 343 342 341 341 341 341 341 340 338 338 337 336 336 336 336 336 336 335 334 334 334 336 336 337 339 338 337 338 340 340 340 340 338 337 336 337 338 338 338 338 337 335 335 336 337 338 338 338 338 338 338 338 339 339 339 339 339 338 337 336 336 335 334 334 333 334 333 333 332 332
309 309 310 309 309 309 309 311 311 312 312 310 312 312 313 313 311 327 342 344 345 344 344 345 345 345 343 343 342 342 341 341 341 340 340 339 338 337 337 337 336 336 336 336 335 335 334 334 335 335 336 338 337 337 338 340 340 340 340 338 337 337 337 338 338 338 339 337 336 336 336 338 338 338 338 338 338 338 338 338 338 339 339 338 338 336 336 335 334 333 333 332 332 331 331 330 330
309 309 310 309 308 309 308 310 311 311 312 311 313 313 313 314 317 332 342 343 344 344 344 345 344 344 343 343 342 342 341 341 340 340 340 339 338 338 337 337 337 336 336 335 335 335 335 335 336 335 335 336 336 337 338 339 339 339 339 338 337 337 337 338 338 338 338 337 336 336 338 338 338 339 339 338 337 338 338 338 339 338 338 337 336 336 335 334 333 332 332 331 330 330 329 328 328
311 309 309 309 309 308 308 309 310 311 312 311 313 313 314 318 324 336 341 342 344 343 343 344 343 343 343 343 342 341 341 340 340 340 340 338 338 338 338 338 337 336 336 335 335 335 335 335 335 335 335 335 336 337 338 339 338 338 338 337 337 337 337 338 338 338 337 336 337 338 339 339 338 339 339 338 338 338 338 338 338 337 336 336 335 334 333 333 332 331 331 330 329 328 327 326 325
311 309 308 309 309 308 308 309 310 312 312 311 312 313 314 319 329 338 340 341 343 342 343 344 343 343 343 342 342 341 340 340 340 340 340 338 338 338 338 338 337 337 336 335 335 335 335 335 335 335 335 335 336 336 337 338 338 338 337 337 337 337 337 337 337 337 337 337 338 338 339 338 338 338 338 338 338 338 338 337 336 335 335 334 334 333 332 332 331 330 330 328 328 327 325 323 321
310 309 308 308 309 309 308 309 309 311 313 312 312 313 313 317 328 337 339 341 344 344 344 344 344 344 343 343 342 341 340 340 339 339 339 338 338 338 338 338 338 337 336 336 336 335 335 335 335 335 335 334 335 335 336 336 337 337 337 336 337 336 336 337 337 337 338 338 338 338 338 338 338 338 338 338 338 337 336 335 334 334 333 333 333 332 331 330 330 328 327 326 325 324 323 320 317
309 309 309 308 308 309 309 309 309 310 313 312 312 312 313 314 324 336 339 340 343 343 344 344 344 343 343 343 341 340 340 339 339 339 338 338 338 338 338 338 338 337 336 336 336 335 335 335 335 335 335 336 336 336 335 335 336 336 336 336 336 336 336 336 337 337 338 338 337 337 337 338 338 338 337 337 336 336 335 334 333 333 332 332 331 330 329 328 328 326 325 325 324 322 320 318 316
309 309 309 308 308 308 309 309 308 309 311 312 312 311 312 318 325 334 339 339 340 341 342 343 343 344 343 343 341 340 340 339 338 338 338 338 338 338 338 338 338 337 337 337 336 336 336 336 336 335 336 337 336 336 335 335 335 335 335 336 336 335 335 336 337 337 337 337 337 337 337 337 337 336 336 335 334 334 334 333 333 332 331 330 329 328 327 326 325 324 322 322 324 322 320 318 317
309 308 309 309 308 308 308 309 308 309 312 311 311 311 316 325 329 334 338 338 340 341 342 342 343 343 343 342 340 340 341 340 338 338 337 338 338 338 337 337 337 337 337 337 337 336 336 336 337 336 337 337 335 335 335 335 335 334 335 336 336 336 335 336 337 336 336 336 336 336 336 336 336 335 334 334 334 334 333 332 332 331 330 329 328 327 325 324 323 321 319 318 321 322 320 318 317
309 308 309 309 308 308 308 309 308 309 313 311 311 312 316 326 331 334 336 338 340 341 343 344 343 342 342 341 341 340 340 340 339 338 337 337 337 337 337 337 337 337 337 337 337 337 337 337 337 337 337 336 335 335 335 335 335 334 335 335 335 335 334 334 334 333 333 333 334 334 334 335 334 334 333 333 332 332 331 330 329 329 328 328 326 325 323 321 318 316 316 315 316 319 320 319 317
310 308 309 308 308 308 308 309 309 310 312 312 312 312 316 328 332 332 336 338 339 341 343 344 343 342 342 341 341 341 340 339 338 338 337 337 337 337 337 337 337 337 337 337 337 337 337 337 337 337 336 335 335 335 335 335 334 334 334 334 334 333 331 331 331 331 331 331 332 332 332 333 333 332 332 331 330 330 329 328 327 326 326 325 323 322 319 316 314 313 313 313 314 315 318 319 317
310 310 308 307 307 308 308 309 310 311 311 313 313 310 317 329 330 331 335 337 338 340 342 343 342 342 341 340 340 340 340 339 338 338 337 337 337 337 337 337 337 337 337 337 337 337 337 337 337 336 335 334 335 335 335 334 333 333 334 334 334 333 331 331 330 331 331 330 330 330 330 330 331 330 330 329 328 327 327 326 325 324 324 322 320 318 315 312 312 312 312 312 312 312 313 316 316
310 309 308 307 307 308 309 309 309 310 311 313 314 311 314 320 325 330 334 335 337 339 340 341 341 341 340 340 340 339 340 339 338 338 337 337 338 337 337 337 337 337 337 337 337 337 337 337 336 334 334 333 334 335 335 333 333 334 335 335 334 333 332 331 329 329 329 328 328 329 329 329 329 329 328 327 326 325 324 323 322 322 321 319 316 314 312 311 311 311 311 310 310 309 310 311 312
310 308 307 308 308 308 308 308 309 311 310 312 315 314 311 313 323 332 333 334 336 336 337 338 338 339 339 339 339 338 339 338 337 338 337 337 338 338 337 337 337 336 337 337 337 337 337 336 334 332 333 333 333 334 333 333 335 334 334 334 333 332 330 328 327 327 327 326 327 328 328 328 327 326 325 323 323 322 322 321 320 320 318 315 313 312 311 311 311 310 309 309 308 307 307 307 307
308 306 307 308 308 308 309 309 310 311 311 312 316 316 310 311 324 334 334 334 335 335 335 335 335 336 337 337 338 337 338 338 338 337 337 337 337 338 337 336 337 336 336 337 337 336 336 334 333 333 333 334 334 333 333 334 335 334 334 333 331 330 328 326 325 325 325 325 326 326 326 326 324 323 321 320 320 319 319 319 318 317 315 313 312 311 311 311 310 309 308 307 306 306 304 303 303
307 307 308 308 308 309 310 310 310 311 312 312 315 317 311 309 320 332 336 334 334 335 335 335 335 334 335 336 337 337 337 337 338 338 337 338 338 337 337 337 337 336 336 337 336 336 335 333 333 333 333 334 335 334 333 334 335 334 334 333 331 330 328 327 325 323 324 324 324 324 324 323 321 320 319 318 318 318 317 317 316 314 312 312 312 311 310 310 309 308 307 305 304 302 301 300 300
307 308 309 310 309 309 310 311 310 312 313 311 313 317 313 310 315 326 333 333 332 334 336 336 336 335 335 335 335 336 336 337 338 338 338 338 337 337 336 337 337 336 337 336 336 336 335 333 333 333 333 334 334 333 333 334 334 334 333 331 331 331 329 329 326 324 324 324 324 324 323 321 319 318 317 316 316 315 315 314 314 313 312 312 311 310 309 308 307 306 304 302 301 300 299 300 300
307 308 310 311 310 310 311 311 311 312 312 309 312 317 315 312 314 321 329 332 333 333 333 335 335 335 335 334 334 335 335 336 337 338 338 338 337 337 336 336 337 336 336 336 336 335 335 334 333 333 333 333 332 332 333 334 333 333 332 331 331 330 329 328 327 326 325 325 324 323 322 319 317 316 315 314 314 314 314 313 313 312 312 311 310 309 308 307 306 303 301 299 299 299 299 300 300
307 308 310 311 311 311 312 311 310 312 311 309 313 319 318 315 316 320 325 330 333 332 332 333 333 335 335 334 333 334 335 336 336 337 338 338 337 337 336 337 337 336 336 336 335 335 334 334 333 332 332 332 331 332 333 333 333 332 332 332 330 330 328 327 327 326 325 325 325 323 320 318 316 315 314 313 313 313 313 312 312 312 311 310 309 308 307 306 303 300 299 299 299 299 300 300 299
308 308 310 311 311 312 311 310 311 312 313 311 314 318 316 314 316 321 324 326 330 332 332 333 333 333 335 334 333 334 335 335 336 337 338 338 337 336 337 336 336 336 336 336 335 334 334 333 333 333 332 330 330 331 332 333 332 332 332 331 329 328 328 327 326 325 324 324 324 321 319 316 315 314 313 313 312 312 312 311 311 311 310 309 308 307 306 304 301 299 299 299 299 300 299 299 299
308 307 308 310 311 312 312 311 312 314 313 314 318 318 316 315 317 323 327 326 326 329 331 333 333 334 334 334 334 335 335 335 336 337 338 338 337 336 337 337 336 336 336 336 335 334 334 333 333 333 332 330 330 331 333 332 332 331 330 329 327 327 328 327 325 324 323 323 322 320 317 315 314 313 313 312 311 311 311 310 310 309 309 308 306 306 305 302 299 299 299 299 299 299 299 299 299
308 307 308 309 309 311 313 311 312 313 312 314 318 317 316 315 317 326 330 328 327 328 331 333 334 335 335 335 335 335 335 336 336 336 337 338 337 336 336 336 336 336 336 336 335 334 334 333 332 333 333 332 331 332 332 332 332 330 329 328 326 326 327 326 324 323 322 321 320 318 316 314 313 312 312 311 311 310 310 310 309 308 307 306 306 305 303 300 299 299 299 299 299 299 298 299 299
307 308 308 308 308 310 313 312 311 312 311 313 315 315 316 312 316 330 334 332 332 331 331 335 335 335 336 336 336 336 336 336 336 336 337 337 337 336 336 336 336 336 336 336 335 334 334 333 332 332 332 332 333 332 331 330 331 329 328 326 325 325 326 324 324 322 321 320 318 316 314 313 312 312 312 311 310 310 309 309 308 307 306 306 305 304 301 299 299 300 299 299 299 299 299 299 299
307 308 308 309 310 310 312 312 312 312 312 314 314 314 316 312 316 331 334 333 337 335 334 336 336 336 336 336 336 336 336 336 336 337 337 337 337 336 336 336 336 336 336 336 334 334 333 333 333 333 333 333 332 331 330 330 330 329 327 326 326 325 324 323 322 321 320 320 317 315 314 313 312 312 311 310 309 309 309 308 307 307 306 305 304 301 299 299 299 299 299 299 299 299 299 299 299
306 307 306 308 310 311 311 312 312 312 312 313 314 314 315 313 318 329 332 333 337 337 336 337 336 336 337 336 337 336 336 337 337 337 337 337 337 336 336 336 336 336 335 335 334 333 332 332 332 332 332 332 331 330 329 328 329 328 326 326 326 324 323 323 321 320 321 320 317 315 314 313 311 310 310 309 309 309 308 307 307 306 305 304 302 300 299 299 299 299 299 299 299 299 299 299 299
306 307 308 308 309 309 311 311 310 311 312 312 314 314 313 315 322 326 328 334 337 336 337 337 337 337 337 336 337 336 337 337 337 337 336 336 336 336 336 336 336 335 335 335 334 333 332 331 331 331 331 330 329 329 328 327 327 327 327 326 325 323 322 321 320 320 321 319 316 315 315 313 311 309 309 309 308 308 307 307 306 305 304 303 300 299 299 299 298 298 298 299 299 299 299 299 298
307 308 307 308 309 310 310 311 310 310 311 312 313 313 312 318 327 325 325 332 335 336 337 337 337 337 337 337 337 336 337 337 337 336 336 336 336 336 336 336 335 335 335 334 334 333 331 331 330 330 331 330 328 329 329 327 325 326 326 326 325 323 322 320 319 320 320 317 316 315 314 313 310 309 308 308 308 307 307 306 305 304 303 301 299 299 299 298 298 298 298 298 298 299 298 298 298
Wind_Speed
10 9 10 9 9 5 1 2 0 1 1 1 1 1 1 1 1 0 5 6 2 2 3 1 3 2 3 2 1 1 1 2 2 2 2 2 2 9 11 8 21 26 24 23 22 25 24 25 25 24 24 20 18 18 19 21 20 20 20 20 20 20 20 20 20 20 20 19 19 18 18 18 18 17 16 15 14 14 13 13 13 13 12 10 10 11 10 9 8 8 10 10 10 10 11 10 10
8 8 8 6 7 5 0 1 1 0 1 1 1 2 1 1 1 2 5 5 4 3 1 2 5 5 3 1 3 1 1 2 3 2 3 3 7 10 9 12 24 24 24 24 22 24 23 25 25 25 24 21 20 18 20 21 20 20 20 20 20 20 20 20 20 20 19 19 18 18 17 17 16 16 15 14 13 13 13 13 13 13 11 10 11 11 10 10 10 11 11 11 11 11 11 10 9
7 6 6 4 4 4 1 1 0 1 1 3 2 1 0 2 2 2 3 2 4 5 6 4 2 3 1 2 3 1 0 1 1 2 3 6 8 9 10 17 25 23 24 23 22 23 23 25 25 25 23 22 20 19 20 20 21 20 20 20 20 20 20 20 20 19 19 18 18 17 16 16 15 15 15 14 14 13 13 13 13 12 11 10 11 11 11 12 12 12 12 12 11 11 10 10 9
5 4 5 3 1 1 1 0 1 2 2 2 2 1 1 3 2 1 2 2 5 5 5 6 2 2 2 3 1 2 1 0 2 1 3 7 8 12 15 20 24 21 22 22 21 21 22 25 25 24 22 21 20 20 21 20 20 20 20 20 20 20 20 20 20 19 18 18 17 16 15 15 15 14 14 14 13 13 12 12 13 13 11 10 10 11 12 12 12 12 12 12 11 11 10 10 9
2 2 4 2 1 0 2 1 1 3 4 2 1 1 3 4 3 2 3 1 5 5 3 3 3 1 1 3 2 0 1 1 1 3 4 7 11 16 19 20 22 20 21 21 21 20 21 25 25 23 22 20 19 20 21 20 20 20 20 20 20 20 20 20 19 19 18 17 17 16 14 14 15 13 13 12 12 12 12 12 12 11 9 9 10 11 12 12 12 12 12 11 11 11 10 10 9
1 3 5 4 1 1 2 2 2 4 4 3 3 1 3 4 3 2 2 1 3 3 1 2 3 2 1 2 2 2 1 2 1 5 6 10 15 18 21 21 20 20 21 20 20 19 21 25 24 22 22 20 19 20 21 20 19 19 20 20 20 20 20 20 19 18 17 17 16 15 15 14 13 12 11 10 10 10 11 11 10 9 9 10 11 12 11 12 12 12 11 10 11 11 10 9 8
3 3 3 3 2 1 3 4 5 5 4 4 4 3 5 4 2 2 1 1 1 2 1 1 1 3 2 2 2 3 2 4 1 5 10 14 18 20 22 21 20 21 20 20 19 18 21 25 23 21 20 20 19 19 20 20 19 19 19 19 20 20 20 19 18 18 17 17 16 15 15 13 12 11 10 9 9 8 9 9 9 9 11 11 11 12 11 11 11 11 11 11 10 10 9 8 7
3 2 1 1 1 0 2 4 5 4 2 3 4 4 7 3 2 2 1 1 1 0 1 1 1 3 1 1 2 3 5 2 3 7 15 18 20 20 21 21 21 22 20 20 19 18 21 24 23 21 19 19 19 19 20 19 19 19 19 19 19 19 19 19 18 17 17 16 15 15 14 13 11 10 9 9 8 7 7 7 8 10 12 11 11 12 11 10 11 11 11 10 9 9 8 7 6
2 1 1 3 2 2 2 3 3 2 2 4 5 5 6 3 1 3 1 1 2 2 3 2 2 3 1 0 2 2 4 3 4 10 16 19 21 20 21 21 22 22 21 20 19 19 21 23 22 21 19 19 19 20 20 19 19 19 19 19 19 18 18 18 18 17 16 15 15 14 13 12 10 10 8 8 7 7 8 8 9 11 12 11 12 12 11 10 10 10 10 9 8 7 7 6 6
1 1 2 2 2 4 5 3 2 3 4 5 6 6 5 2 2 2 2 3 2 1 2 1 2 4 2 2 2 2 2 5 10 13 16 19 20 20 20 20 21 22 21 20 20 20 20 23 23 21 20 19 20 21 21 20 19 19 19 19 18 18 18 17 17 16 16 15 14 13 12 11 10 9 8 8 8 7 7 9 10 12 12 11 12 12 11 10 10 10 9 8 7 6 6 5 6
2 1 1 2 4 6 6 5 4 4 4 3 5 7 6 2 0 2 4 5 2 2 3 2 2 5 3 2 1 2 3 7 11 14 16 18 19 19 20 18 19 20 21 21 21 19 20 23 23 22 21 20 21 22 21 21 20 20 20 19 18 18 17 17 17 16 15 13 13 12 11 11 10 9 8 8 8 8 7 9 11 12 12 12 12 12 11 11 10 9 8 8 6 5 5 4 4
3 3 2 5 6 6 6 7 7 6 5 4 5 7 4 3 2 4 7 6 2 3 4 4 2 3 4 2 0 2 7 8 10 15 17 18 18 18 18 17 17 18 20 22 20 19 20 22 23 22 22 21 21 22 22 21 21 21 20 19 19 18 17 17 16 15 14 12 11 11 10 9 9 8 8 8 8 8 8 9 12 12 12 12 12 12 12 11 10 9 8 7 6 5 4 3 3
4 4 5 6 4 6 6 6 6 6 5 6 7 4 1 4 6 8 8 4 3 4 3 7 3 2 4 1 1 4 8 9 11 15 18 18 18 18 17 16 16 18 20 20 20 20 21 22 22 21 21 20 21 22 22 22 21 20 20 19 18 17 17 16 16 14 12 11 10 9 8 8 7 7 6 6 7 7 8 10 12 13 12 12 12 12 12 11 10 9 8 7 5 4 3 2 2
3 2 5 5 3 6 7 5 5 7 6 6 6 3 3 4 5 6 4 4 6 2 1 3 4 4 3 1 2 5 9 12 14 16 18 18 17 17 16 16 17 19 20 19 20 21 22 21 21 20 20 20 20 21 21 21 20 20 19 18 17 17 16 16 15 13 11 10 9 9 8 8 8 7 6 6 6 7 8 10 13 13 12 12 12 12 12 12 11 9 8 6 5 4 3 3 2
3 2 3 3 3 6 8 6 7 9 5 7 7 5 5 4 1 3 4 7 4 1 2 1 3 3 3 6 5 7 15 17 16 17 18 18 16 16 16 17 18 18 18 19 20 21 22 20 20 21 20 21 21 21 21 20 20 20 19 17 17 17 16 15 14 12 10 9 10 9 9 10 10 9 8 7 7 7 8 11 13 13 13 12 12 12 11 11 11 9 8 6 5 4 3 3 2
2 2 2 4 6 7 8 7 8 9 4 7 7 5 6 5 2 2 3 5 1 3 2 0 1 3 3 6 4 12 21 20 18 19 19 18 17 16 16 17 17 16 17 19 20 21 21 19 20 20 21 22 21 21 21 20 20 20 19 17 17 17 16 14 12 10 9 10 10 10 11 10 10 10 10 9 9 8 9 10 12 13 13 12 12 11 11 10 10 9 7 5 4 2 2 1 1
1 3 5 7 8 9 8 9 8 6 5 7 6 5 7 5 2 1 1 1 2 2 3 2 3 4 3 4 5 19 24 21 21 21 21 19 18 17 17 17 17 17 17 18 19 20 20 20 21 20 21 22 21 21 21 20 20 20 18 17 18 17 15 13 11 10 9 9 10 11 11 10 10 11 11 11 10 9 9 10 11 13 13 12 11 10 10 9 8 7 5 4 3 1 0 1 1
4 4 7 9 8 8 9 11 8 6 7 8 7 8 11 9 4 4 3 4 5 4 4 2 3 5 2 3 14 23 23 23 24 23 22 21 19 19 18 18 19 19 19 19 19 20 20 21 21 19 20 21 21 21 20 19 20 19 18 18 17 15 14 13 11 10 9 9 11 12 11 10 11 11 12 12 11 10 9 9 10 12 12 11 10 10 8 7 6 5 5 4 3 2 2 2 2
7 4 7 9 6 7 9 12 9 7 8 8 8 10 12 10 6 6 5 5 6 4 2 0 1 3 4 10 18 22 23 25 25 24 24 23 21 21 20 19 20 20 21 21 20 20 20 21 21 20 20 21 21 20 19 19 19 18 17 17 16 14 13 12 11 10 9 10 12 12 11 11 11 10 11 12 12 12 11 10 10 11 11 10 9 8 7 6 6 5 5 4 3 3 4 4 4
5 3 8 7 4 6 7 11 10 6 7 8 7 7 9 7 4 5 5 6 7 4 4 4 5 6 8 13 18 21 24 24 25 25 24 24 21 20 22 22 21 21 22 21 20 20 19 20 22 20 20 22 21 19 19 19 18 18 17 16 15 14 12 12 13 11 11 12 12 12 11 11 11 10 10 10 11 12 13 12 10 10 10 9 8 7 6 6 5 5 4 3 4 4 5 5 6
4 5 7 3 5 6 6 8 9 6 5 7 5 5 7 5 3 5 6 6 6 6 8 9 9 12 14 14 18 22 23 23 24 24 24 24 22 19 20 20 19 19 21 21 20 20 20 20 21 20 21 22 21 19 19 19 17 17 16 15 15 13 12 14 14 11 12 12 12 11 11 11 11 10 10 9 9 10 11 12 11 10 10 9 8 7 6 6 5 4 4 3 4 4 5 6 7
4 6 2 4 5 7 6 5 7 5 3 3 4 6 6 5 3 4 8 9 5 3 8 11 11 15 18 18 19 20 21 22 23 24 25 24 22 19 18 17 15 17 20 21 20 20 20 21 20 20 21 21 20 18 18 17 17 16 14 14 15 12 13 15 13 11 11 11 11 10 11 11 10 8 9 9 9 8 8 9 10 10 10 10 8 7 6 5 4 4 3 3 3 4 5 6 7
5 5 2 3 4 5 5 5 5 4 5 5 4 4 3 6 4 2 6 7 3 2 5 8 10 15 19 19 20 20 21 21 23 26 27 24 21 19 17 17 16 17 20 21 21 21 20 20 20 20 21 20 19 18 17 16 16 15 14 14 14 12 13 15 13 11 11 10 10 10 11 10 8 7 8 9 9 8 7 8 8 9 9 8 7 6 5 4 4 4 4 4 3 4 4 5 6
8 5 4 4 4 5 3 2 4 4 6 4 2 2 4 6 5 3 4 4 5 6 5 4 9 15 17 18 19 19 21 22 24 26 23 19 19 18 17 16 16 17 18 20 21 21 20 20 20 20 20 20 19 18 17 16 16 15 14 14 13 12 14 15 13 12 11 10 9 10 10 10 9 8 8 9 9 9 8 8 7 7 6 5 5 4 4 3 4 4 4 4 4 4 4 5 6
12 7 4 4 5 6 4 1 2 3 3 1 1 3 4 4 2 4 4 3 6 6 2 7 11 14 16 17 19 18 19 20 22 23 18 14 14 14 14 14 15 16 18 20 21 21 19 21 22 21 20 19 19 18 17 17 16 15 15 13 12 12 13 13 13 13 11 10 9 9 9 9 10 9 8 8 9 9 8 8 7 6 5 5 4 3 2 3 3 3 4 4 4 4 4 5 6
10 9 6 5 5 7 6 5 3 2 1 2 3 4 4 3 2 3 3 3 4 2 5 10 12 15 16 16 18 18 18 19 21 20 15 12 13 14 13 14 15 16 17 19 20 20 20 21 23 22 20 20 19 17 17 17 16 15 15 13 12 12 10 12 13 12 11 10 8 9 9 9 9 8 7 7 7 7 6 6 5 5 4 3 2 2 2 2 3 3 3 3 3 3 4 5 7
6 11 9 8 7 5 4 6 7 3 2 4 4 5 5 3 4 5 3 3 4 5 7 10 12 15 16 15 16 17 17 20 20 16 14 13 14 15 15 15 16 17 17 18 19 20 21 21 22 21 20 20 19 17 16 17 15 15 14 13 12 11 11 12 12 10 11 9 8 8 9 10 8 7 6 5 5 5 4 5 4 3 3 2 1 1 1 2 2 2 2 2 2 3 4 7 8
4 10 11 11 10 7 4 4 5 4 4 7 6 6 5 3 5 6 6 7 8 9 10 12 13 13 15 15 15 15 15 19 20 17 16 16 14 15 17 18 18 18 18 19 19 19 19 20 20 20 20 20 19 16 16 17 15 14 14 12 11 11 12 12 10 10 11 8 8 8 8 8 7 6 5 4 4 4 4 4 4 3 3 2 0 1 1 1 1 1 1 2 3 5 6 7 8
3 6 7 10 11 12 12 8 5 5 6 7 7 7 9 7 6 6 9 11 11 11 11 12 14 12 13 14 13 13 14 18 21 19 17 14 12 15 18 18 19 19 18 18 18 18 19 19 19 20 20 20 19 17 16 17 15 13 12 11 11 12 12 12 11 11 10 8 8 7 7 7 6 5 4 4 4 4 4 4 4 4 3 2 1 2 2 1 1 2 3 3 4 6 6 7 8
5 5 5 6 8 11 15 12 7 8 5 6 10 8 10 11 8 7 10 12 12 11 10 11 12 12 12 12 12 13 15 18 20 19 16 13 10 14 17 17 20 18 17 17 18 19 18 18 19 19 20 20 19 18 17 16 13 12 12 12 13 14 13 12 12 10 9 8 8 7 6 5 5 5 5 5 5 4 4 4 4 4 3 1 1 2 2 2 2 2 3 3 5 6 7 8 8
7 6 5 6 6 5 11 14 11 10 5 6 11 10 7 8 8 9 11 14 15 13 12 12 12 12 12 12 13 14 15 18 19 18 17 14 11 15 17 17 20 18 17 18 18 19 18 18 18 19 20 20 19 18 16 14 12 12 13 13 14 14 12 12 12 10 9 8 7 6 5 4 4 4 5 6 6 4 3 3 4 3 3 1 1 2 2 2 2 3 3 4 5 6 6 7 8
8 7 7 8 7 3 7 13 16 15 6 7 12 8 6 6 7 10 12 15 16 14 13 13 13 14 13 13 14 13 13 16 17 17 17 15 13 15 17 17 19 19 17 17 18 18 18 19 19 19 22 21 18 18 15 12 11 12 13 13 15 14 12 11 11 10 8 8 7 6 5 4 4 4 5 6 6 5 3 3 3 4 3 1 1 1 2 2 4 4 5 5 6 7 7 8 10
8 9 7 9 11 5 5 8 14 18 9 8 13 6 2 4 6 10 13 16 16 14 14 15 15 14 14 13 13 13 12 14 15 17 17 15 15 16 16 17 18 18 16 16 17 18 18 19 18 18 22 22 18 18 16 14 13 12 12 13 14 14 12 11 11 10 7 7 7 6 5 5 4 5 5 5 5 5 4 4 4 4 3 2 1 2 2 2 4 5 6 7 7 8 9 11 12
9 9 5 6 12 9 6 4 8 18 15 12 14 9 5 2 4 11 15 17 17 14 14 16 15 14 14 12 13 14 13 14 14 16 18 15 15 16 15 15 16 16 14 15 16 17 17 17 16 17 20 21 19 19 18 17 15 13 12 13 14 13 12 12 11 10 9 8 8 7 6 5 5 6 5 5 5 5 5 5 5 4 3 3 2 2 1 1 3 5 7 8 9 10 11 13 13
9 10 6 5 10 11 10 6 6 17 19 16 15 13 12 4 4 10 14 17 18 16 15 15 15 15 14 13 14 14 14 15 13 15 18 15 15 16 15 15 15 15 14 14 15 15 16 16 16 17 19 20 20 19 18 18 18 14 13 14 13 12 12 12 11 10 10 10 9 7 6 6 6 6 5 5 5 6 6 6 6 6 5 4 2 2 1 2 4 6 7 9 11 11 12 12 13
11 10 9 8 10 11 13 8 7 16 17 16 16 14 16 10 6 10 12 14 16 16 15 12 13 14 12 13 13 13 15 15 13 15 17 15 14 15 15 15 15 14 14 15 15 14 15 16 16 16 18 20 19 19 18 18 19 15 12 12 10 10 11 11 12 12 12 12 10 8 7 7 7 6 6 6 6 6 7 7 7 7 5 4 2 0 1 3 4 7 8 10 10 11 12 12 14
12 11 10 10 9 9 12 10 8 13 13 13 15 14 17 13 9 11 12 14 15 15 15 13 14 13 11 14 14 15 16 12 10 12 13 13 14 14 14 15 15 15 16 16 15 15 16 17 17 17 19 20 19 19 19 18 17 14 12 11 11 12 13 13 14 14 13 12 10 9 8 8 8 7 7 6 6 7 8 8 8 6 5 3 1 2 3 4 6 7 9 10 10 10 12 14 16
10 12 10 9 9 8 10 12 8 10 10 9 13 15 18 15 10 11 12 14 15 16 17 16 16 14 12 15 17 16 12 7 9 10 11 13 14 14 14 14 15 16 17 17 16 17 18 18 19 20 21 20 18 19 18 17 17 16 15 14 14 14 13 13 15 14 13 12 10 9 9 9 9 8 7 7 7 8 8 7 6 4 3 3 4 4 4 5 7 8 8 8 8 10 11 15 18
4 9 10 7 8 7 7 10 7 9 8 6 11 14 15 10 7 10 13 15 14 16 18 16 16 16 15 17 17 15 12 9 10 10 12 14 14 15 15 13 14 16 17 18 18 18 20 21 21 22 21 18 17 17 16 17 18 18 17 16 15 15 13 13 15 14 12 11 10 10 11 11 9 8 9 9 7 6 5 5 4 3 3 4 5 4 4 6 7 8 8 7 5 7 10 14 18
2 5 10 8 8 8 7 9 8 9 4 3 11 12 7 3 2 7 12 12 11 13 16 14 11 14 17 17 14 14 15 13 12 11 12 13 14 15 15 14 15 15 15 16 19 19 20 21 23 23 20 17 17 16 17 19 19 18 18 18 18 17 15 15 14 12 12 13 14 14 13 12 9 9 10 8 5 4 4 3 2 2 2 3 4 3 4 6 8 8 8 7 5 5 9 13 16
5 4 7 8 10 8 3 7 9 7 2 2 10 9 5 4 4 6 9 8 6 9 13 12 9 11 12 12 12 13 15 14 12 13 12 12 13 15 15 15 15 15 14 15 17 19 20 22 23 22 19 19 20 20 20 20 20 21 20 19 18 17 15 15 14 14 15 17 17 17 15 13 10 10 9 6 5 5 3 2 2 2 2 2 2 3 5 6 7 8 7 7 8 7 7 10 14
5 6 7 6 10 8 4 10 11 6 7 7 10 8 4 4 6 7 9 9 9 8 11 13 12 12 10 11 14 13 13 13 11 12 12 12 13 14 15 16 16 15 14 14 17 19 20 21 22 21 19 21 23 23 21 19 21 24 24 22 20 18 14 13 15 17 18 19 19 18 16 13 11 10 9 6 4 3 2 2 2 3 3 3 4 5 6 8 9 10 9 10 11 9 8 8 11
4 5 7 6 6 8 9 14 12 6 6 7 9 9 3 3 7 9 10 11 13 11 11 13 13 12 12 13 14 12 12 12 11 11 11 12 13 14 16 16 16 15 14 15 17 20 21 22 21 19 20 23 24 22 19 21 23 25 25 24 23 21 17 14 16 20 20 20 20 19 16 14 11 9 7 4 3 2 2 3 3 3 4 5 6 7 9 11 12 12 12 12 12 11 11 11 10
3 3 7 8 5 6 8 11 10 4 2 4 7 7 3 4 6 8 11 12 14 15 13 14 13 13 16 16 13 12 12 12 11 12 12 13 15 15 17 17 16 15 14 15 18 19 21 21 17 19 23 25 25 20 18 22 25 25 24 22 19 20 21 19 21 23 21 20 20 18 15 13 9 6 4 3 3 3 3 4 4 4 6 7 8 11 13 13 14 14 13 13 13 13 14 13 12
4 3 7 8 5 4 4 7 6 2 4 7 7 6 6 5 3 5 11 12 13 16 17 17 17 18 18 17 15 13 13 13 13 12 12 14 15 16 18 17 17 16 16 17 18 17 18 17 18 23 24 25 23 19 19 23 25 25 24 20 17 17 19 22 24 24 22 20 19 16 13 11 8 5 4 4 4 4 5 5 6 6 8 10 12 13 15 14 14 14 14 13 14 14 14 14 14
4 5 5 4 4 2 1 3 3 3 5 9 10 11 8 5 3 5 10 11 12 13 15 17 18 20 19 18 18 15 13 12 12 11 11 14 15 16 18 18 17 17 18 19 18 18 17 18 21 22 23 24 23 22 24 26 25 25 23 20 19 18 20 23 24 24 23 20 18 16 12 10 8 6 5 5 5 6 7 7 8 9 11 13 14 15 15 15 14 14 14 14 14 14 15 15 16
5 7 6 4 4 2 1 0 1 3 6 5 10 13 9 6 4 6 8 9 12 12 12 15 17 18 18 17 18 16 13 11 10 11 11 14 16 17 19 19 18 19 19 20 20 19 18 20 22 21 22 25 25 23 24 26 27 26 22 20 21 23 24 26 25 24 23 20 18 16 13 10 9 7 7 8 8 9 9 10 10 12 13 14 15 15 15 15 15 14 14 14 14 15 16 17 19
7 7 7 5 4 2 2 2 1 6 6 3 7 11 9 9 5 6 9 11 13 14 13 15 17 18 17 16 15 15 14 12 12 11 10 13 16 17 20 20 19 21 21 20 21 19 18 19 21 21 22 26 25 21 20 23 25 24 22 22 23 25 27 29 28 25 23 20 19 16 13 12 10 10 10 11 12 11 11 12 13 14 15 15 15 16 15 14 14 14 14 15 16 17 18 19 20
9 8 8 7 6 5 5 5 4 5 3 2 6 10 8 8 4 5 11 13 14 15 14 15 17 18 16 14 14 14 13 14 14 11 10 12 14 15 19 21 21 23 22 21 21 19 18 19 21 21 22 23 23 23 22 22 22 21 22 23 24 26 28 29 28 25 22 20 17 15 14 13 13 13 14 15 14 13 13 14 15 15 16 16 16 15 15 13 13 14 15 17 18 19 21 21 21
13 10 10 8 6 6 7 6 3 4 2 2 3 7 5 4 3 6 13 15 15 15 13 11 9 11 13 13 13 14 14 15 14 12 11 12 14 16 19 21 22 24 24 23 21 20 19 19 21 23 22 20 21 25 24 21 20 20 22 24 25 28 29 27 26 24 22 19 16 15 14 14 15 16 17 16 15 14 14 15 15 16 17 17 16 15 14 13 13 15 17 20 21 21 22 22 23
10 5 6 6 3 3 5 4 4 5 4 3 3 5 4 5 3 4 8 8 10 11 7 3 4 7 10 11 12 14 15 15 14 14 12 12 16 17 19 21 22 24 25 24 21 20 20 21 24 25 23 21 21 21 22 21 19 19 22 24 26 29 28 25 25 24 22 19 16 15 15 15 16 17 17 16 15 14 15 16 16 17 18 16 15 14 13 13 14 17 20 21 22 22 23 25 26
7 2 5 6 2 2 2 1 2 4 4 4 3 3 2 2 1 1 0 2 5 7 6 6 7 9 11 12 13 14 15 15 15 15 13 13 17 19 20 22 21 22 25 24 22 21 21 22 24 24 22 20 20 18 18 20 18 18 21 24 25 27 26 25 25 24 21 19 17 16 16 16 17 17 17 16 15 15 16 18 18 18 17 15 14 13 13 14 16 20 22 23 24 24 26 27 27
5 5 7 5 2 3 3 2 2 2 5 4 3 3 2 2 1 1 1 3 6 8 10 11 10 12 13 13 13 14 15 16 16 16 13 13 17 20 21 22 22 22 23 24 23 23 23 23 22 21 18 18 18 16 16 17 17 18 21 24 25 25 25 26 26 24 22 19 17 16 17 17 17 17 17 17 16 16 17 18 19 18 16 15 14 13 13 15 19 22 24 25 26 27 28 27 26
5 8 6 4 3 2 1 3 2 4 7 3 3 6 5 5 4 2 3 6 7 9 12 12 12 13 14 13 13 15 17 16 17 17 14 12 16 19 21 23 23 22 22 23 23 24 25 23 21 20 18 19 19 16 15 17 21 22 23 24 25 24 25 26 26 24 22 20 18 17 18 18 18 17 17 17 17 18 18 18 19 18 16 15 14 13 15 17 20 24 26 27 27 27 27 25 24
5 6 5 3 4 2 1 2 3 6 5 2 3 4 3 5 5 2 6 9 9 10 12 12 14 15 14 13 15 16 16 15 15 16 14 12 15 19 22 23 22 22 22 22 22 25 26 24 22 19 19 21 20 17 18 21 24 24 23 24 23 23 24 25 25 24 22 20 19 18 18 18 18 17 16 17 18 19 19 19 19 18 16 15 14 14 16 19 23 26 28 28 27 27 25 23 23
2 5 6 2 1 2 2 1 2 4 4 3 4 3 4 5 4 5 10 11 11 12 12 13 16 17 14 13 15 16 17 16 16 16 16 14 16 21 23 23 23 23 23 22 23 25 25 24 23 22 21 20 18 19 22 24 25 24 23 23 22 22 25 25 25 24 21 19 19 18 17 17 17 17 17 18 19 19 20 20 19 17 16 15 14 16 19 23 26 28 28 27 26 25 23 22 21
5 8 8 5 2 1 2 1 1 2 3 3 4 4 4 4 3 7 11 10 11 14 13 13 14 15 14 14 16 17 17 17 16 17 16 15 17 22 23 23 23 23 22 22 22 24 25 26 26 26 25 21 19 21 23 24 25 25 24 23 23 24 26 26 26 23 20 19 19 18 17 16 16 18 19 19 20 21 21 20 18 17 16 15 16 19 22 25 28 29 28 26 24 22 21 19 18
8 6 5 6 6 3 4 4 1 1 0 2 2 3 3 3 2 4 6 7 9 12 12 10 11 14 15 14 16 17 17 17 17 17 15 14 16 20 22 23 23 23 22 21 21 23 24 26 28 29 28 25 23 25 25 23 25 25 24 24 26 27 28 28 26 22 21 21 20 19 18 17 18 19 20 20 21 22 21 19 18 17 16 16 19 23 25 28 29 29 28 26 23 21 20 18 17
Wind_Direction
329 334 333 337 347 346 355 7 330 30 42 176 138 229 218 142 162 109 16 10 2 76 106 159 234 248 265 281 306 155 174 234 247 267 351 56 85 157 172 179 167 158 156 160 162 168 172 174 168 165 164 158 155 154 152 150 150 147 144 144 143 143 141 138 137 137 135 133 131 129 127 124 122 121 121 119 116 112 107 102 98 96 98 92 81 84 85 86 85 91 107 118 119 113 118 117 102
328 331 331 333 360 2 194 18 332 1 322 262 176 173 329 265 224 84 44 15 346 326 282 222 224 250 299 36 70 105 188 328 335 7 38 114 129 153 179 176 166 159 157 160 161 166 170 172 169 166 165 160 155 154 153 152 151 147 146 146 144 143 140 138 137 137 134 133 131 129 128 125 123 123 122 119 116 111 105 101 100 100 100 94 82 81 82 86 88 92 101 111 120 122 123 116 101
326 333 337 331 17 22 117 6 269 158 285 276 266 172 316 273 274 79 86 350 323 310 311 318 227 194 264 129 130 169 156 11 328 58 91 153 150 160 171 167 166 160 158 159 162 167 170 172 170 167 165 160 156 155 154 153 152 149 149 147 143 142 140 138 135 135 133 133 131 130 130 128 125 123 122 120 117 111 107 104 101 101 100 98 92 88 84 87 90 94 100 105 115 124 121 107 96
324 332 346 349 49 31 96 20 162 182 239 261 297 209 219 247 292 20 107 318 306 307 327 338 340 146 312 341 108 158 88 65 214 167 149 176 170 157 157 161 161 158 158 159 163 167 169 173 170 165 164 160 156 155 156 155 153 152 150 145 143 142 140 136 135 135 134 134 132 130 130 128 125 124 124 122 118 113 111 109 107 107 106 100 98 100 96 95 96 99 104 107 113 118 112 101 94
315 354 5 15 188 6 103 70 117 201 224 187 276 221 218 226 279 330 94 300 287 294 319 329 331 48 9 12 13 159 83 343 193 185 158 168 171 152 152 158 156 157 159 160 165 165 169 174 169 164 164 159 156 156 156 156 155 154 150 145 143 141 139 137 137 138 136 136 134 131 130 128 126 124 123 120 119 117 116 116 116 115 109 95 93 100 104 105 105 107 109 110 112 111 107 101 91
197 89 46 60 94 33 149 206 170 212 219 176 239 226 224 224 250 304 70 298 286 306 304 276 322 338 312 61 34 38 348 292 133 181 164 159 167 153 151 156 154 157 160 162 165 164 169 173 168 164 163 158 157 157 157 157 156 155 149 146 143 141 141 139 139 139 139 139 138 137 134 130 127 123 118 117 121 122 122 123 123 120 110 100 97 102 109 112 113 115 113 111 111 110 107 98 88
171 145 48 81 94 351 204 217 197 216 206 180 241 250 247 233 172 289 1 351 318 62 96 250 282 291 288 88 102 60 340 265 227 191 167 156 159 153 153 155 154 156 160 162 164 164 169 171 166 164 162 159 157 158 158 157 157 155 150 147 145 144 143 141 141 142 143 143 140 138 133 128 126 123 120 120 123 127 128 126 124 120 112 108 105 106 112 116 119 121 118 116 113 111 106 98 89
152 165 339 201 160 345 201 213 204 215 200 192 255 256 262 260 120 264 301 87 284 167 222 245 190 271 304 118 210 50 18 297 240 191 162 152 155 156 156 157 156 157 159 161 163 163 168 169 164 163 161 159 159 158 159 158 157 155 151 148 146 145 144 143 144 146 147 145 139 136 132 131 132 132 130 128 127 128 129 126 123 118 114 109 104 106 111 117 123 125 123 122 119 114 108 100 87
111 74 199 224 205 205 201 207 200 218 234 221 238 241 267 277 152 249 243 236 246 199 226 226 194 253 337 210 242 64 28 45 136 159 155 152 156 159 159 159 157 156 158 159 162 161 167 169 163 163 162 161 160 159 159 159 157 156 152 149 147 146 145 147 147 147 148 144 139 138 138 137 140 142 139 137 137 137 131 128 127 120 116 111 104 105 111 122 130 132 131 128 124 119 110 101 85
93 1 177 203 202 213 216 209 187 201 225 229 243 244 260 257 182 226 235 264 254 187 231 101 187 240 291 249 248 53 56 114 131 141 151 156 157 161 159 160 158 155 157 158 159 159 167 170 164 164 165 164 161 159 161 160 159 157 153 150 150 151 151 151 150 148 147 144 141 141 143 145 147 149 150 147 147 153 143 134 134 126 119 113 107 106 113 127 135 137 135 132 128 119 108 102 86
165 55 153 207 208 220 217 214 210 189 206 236 261 258 258 230 212 245 233 260 254 226 225 124 205 223 242 244 259 49 133 144 145 147 155 158 158 160 157 159 160 158 157 156 158 160 166 169 168 167 167 167 162 161 162 161 160 158 155 154 155 156 156 154 150 148 147 145 143 144 149 154 156 156 161 162 154 156 152 142 139 132 124 116 109 107 113 125 133 136 135 132 129 119 107 99 83
199 147 169 223 217 221 211 217 221 200 193 185 219 245 252 177 182 250 243 257 242 244 218 184 204 197 220 253 11 123 149 161 160 157 159 160 160 160 157 158 161 160 157 155 158 161 164 167 171 171 170 167 163 163 164 163 162 160 158 159 159 159 157 153 148 147 147 147 147 151 156 158 160 160 166 167 158 153 152 149 144 137 128 119 112 108 111 120 130 134 134 132 128 122 109 97 77
218 159 178 222 213 209 199 210 217 210 211 180 199 219 187 181 208 239 248 276 246 259 237 203 190 175 224 301 61 161 166 177 171 165 162 161 161 160 158 158 160 159 157 157 160 163 164 167 171 173 173 169 164 164 166 165 164 162 161 162 162 159 156 150 147 148 148 150 149 152 153 151 153 156 163 164 158 152 153 153 148 141 131 122 115 111 110 115 125 131 133 131 126 121 107 93 74
215 168 198 218 201 203 193 199 197 215 222 175 201 204 176 215 223 227 228 267 251 238 294 215 185 202 224 214 215 186 182 183 173 168 164 162 161 159 157 156 158 157 159 162 163 164 166 168 171 172 172 169 165 166 167 167 166 163 163 164 162 158 155 149 148 150 151 151 147 145 143 139 139 141 149 153 152 151 154 155 151 144 134 126 120 115 112 113 119 125 128 125 120 116 108 97 80
193 173 212 223 196 200 199 199 189 214 221 165 197 205 206 236 216 200 201 243 263 79 315 213 176 222 185 193 221 183 179 175 168 167 163 162 159 157 155 153 156 158 164 166 166 167 167 169 171 172 172 168 166 167 168 169 169 166 164 162 160 158 154 150 150 151 151 148 143 140 135 131 130 131 135 138 144 146 150 155 155 149 139 132 125 119 115 113 114 116 118 117 116 113 109 100 82
187 165 206 236 207 202 198 184 184 210 206 172 200 184 206 241 208 219 226 230 206 64 324 123 218 297 198 219 223 162 168 164 163 165 160 159 156 153 153 154 158 162 168 169 169 170 170 171 172 174 173 169 167 168 169 171 171 167 164 160 159 158 155 152 151 151 149 145 141 137 134 130 123 121 120 120 126 134 144 155 159 153 144 137 129 122 118 114 110 108 108 105 106 108 109 98 60
143 188 216 231 209 202 183 169 181 192 176 187 201 174 200 223 180 171 85 154 153 83 34 50 336 328 274 270 134 147 158 158 161 162 159 159 157 156 157 159 163 167 171 173 174 172 174 176 174 175 173 170 169 169 170 171 171 168 163 160 159 159 157 154 151 150 146 142 137 133 132 125 117 113 109 107 111 116 128 148 157 154 148 140 132 126 120 112 105 101 99 95 95 90 53 356 357
176 196 218 225 207 195 172 171 176 165 185 196 191 188 196 204 186 164 138 98 109 90 60 39 12 17 359 100 130 145 153 158 162 163 164 164 164 165 165 166 170 173 175 176 177 176 177 178 176 175 173 172 170 170 171 171 171 168 162 160 159 159 157 155 152 148 143 138 133 129 127 119 112 106 98 98 101 103 108 127 147 154 152 144 136 130 120 108 102 100 99 96 87 59 26 14 17
198 184 216 224 197 177 169 172 173 169 187 184 186 195 195 200 184 170 190 161 142 121 82 316 52 65 97 129 139 149 158 163 166 169 171 172 172 171 169 171 175 177 177 177 178 178 179 180 179 177 174 173 171 172 172 171 172 168 164 161 160 159 158 157 151 145 140 136 132 127 122 117 112 105 96 92 94 94 95 106 127 148 153 148 139 130 120 111 108 106 99 89 72 43 26 18 13
204 198 223 221 150 161 174 174 180 188 185 182 187 189 195 199 167 174 199 180 172 178 166 184 203 180 158 153 153 156 164 169 171 175 177 178 177 173 172 174 178 179 178 177 176 178 179 180 181 179 176 173 172 172 173 173 174 171 166 163 162 160 159 156 150 143 139 135 132 127 120 116 111 109 106 97 94 91 91 95 107 130 145 149 141 129 122 118 111 99 84 70 57 33 19 9 2
181 210 226 168 134 174 182 179 186 194 196 198 167 143 187 193 175 184 171 179 202 212 202 201 203 182 170 167 165 165 169 173 178 181 182 182 181 178 178 177 176 176 175 174 175 179 181 181 181 180 177 175 174 172 174 176 175 172 168 165 164 161 158 153 149 144 138 136 131 126 120 117 114 111 109 101 97 93 91 93 100 113 126 135 133 124 120 114 104 86 69 54 37 19 9 359 353
182 214 218 101 159 190 177 181 193 189 186 194 153 152 172 157 174 183 175 205 225 208 217 216 196 172 171 172 170 171 175 179 184 186 187 187 185 181 177 174 172 170 171 175 176 179 181 181 181 180 178 177 176 173 173 176 176 173 169 167 165 162 159 154 151 148 142 139 132 124 119 119 115 109 105 100 98 97 96 97 101 110 118 124 122 115 110 102 90 72 58 45 25 11 5 357 353
214 215 168 139 177 187 175 181 188 176 182 187 177 176 138 141 169 186 193 218 260 277 247 227 187 167 169 170 172 177 182 186 188 190 191 189 186 180 173 171 168 167 173 178 178 179 181 181 181 180 179 178 178 175 173 176 176 175 172 170 168 164 163 159 154 152 148 143 133 125 121 119 111 102 100 99 101 103 106 107 108 114 118 122 120 110 103 91 70 63 57 49 35 23 14 4 358
227 217 166 179 181 185 180 168 166 167 194 186 143 155 145 170 178 164 200 240 282 285 275 216 167 161 166 171 178 185 188 191 192 193 193 190 187 179 172 169 165 166 171 177 179 180 181 182 181 179 179 178 177 176 175 177 178 179 177 173 172 169 167 163 156 154 152 145 135 128 123 116 104 98 97 98 101 105 111 114 114 117 117 117 121 113 94 76 61 63 58 49 40 26 16 5 1
222 213 163 168 182 197 207 174 139 165 202 143 109 168 165 189 172 160 194 254 278 287 236 169 156 159 172 179 184 189 192 195 196 195 194 193 187 177 172 167 164 167 171 175 178 180 182 183 182 179 179 178 178 178 177 180 181 181 178 177 177 172 170 165 159 157 153 144 135 130 126 118 107 101 99 100 102 104 109 110 110 115 114 116 125 116 79 68 63 59 54 48 35 23 17 6 2
211 198 178 176 182 195 211 226 207 175 190 176 186 204 215 201 155 186 203 249 266 247 165 160 161 172 181 186 188 191 194 197 198 195 192 191 186 179 176 170 170 174 173 173 177 180 181 183 183 181 180 178 179 179 180 183 183 181 178 179 177 173 174 168 163 160 154 146 138 132 128 125 115 106 102 101 103 105 111 111 111 116 117 124 122 95 54 51 59 60 57 48 34 24 14 1 358
177 188 197 202 205 199 203 224 221 213 196 199 195 213 226 180 186 217 185 200 200 162 166 169 175 182 185 190 193 194 196 198 197 191 190 191 189 184 178 176 176 176 174 176 181 180 179 181 182 183 181 179 180 179 182 186 184 180 176 179 176 174 178 171 167 163 155 152 147 138 131 128 122 114 102 92 95 97 110 118 123 128 125 138 112 54 13 31 58 71 64 40 21 10 1 352 350
155 182 197 206 217 226 208 200 208 210 206 198 201 235 236 149 199 216 160 178 186 170 174 182 190 189 189 193 193 197 200 199 196 194 196 193 189 183 179 179 177 175 178 181 181 179 178 180 181 183 182 180 183 183 184 187 183 177 176 179 175 174 178 174 172 166 159 159 156 147 139 136 129 121 102 85 88 92 114 128 129 133 132 142 142 327 325 29 76 68 23 5 353 349 351 345 345
171 164 190 199 210 227 219 207 190 195 208 182 178 239 241 196 197 191 166 175 180 181 181 186 197 194 191 195 195 201 202 199 199 201 200 194 185 178 178 180 178 177 182 183 180 179 180 181 181 183 182 182 186 187 185 185 181 176 176 178 175 175 177 176 175 169 163 163 160 155 149 144 136 126 115 102 98 104 122 132 127 128 133 147 277 302 306 1 41 7 348 346 341 344 347 345 349
195 174 197 186 196 222 216 210 198 193 203 161 173 230 233 197 185 172 170 174 173 185 190 191 200 197 196 197 198 204 203 201 203 202 199 194 181 175 180 181 181 181 181 183 181 181 182 181 181 182 184 187 190 190 185 184 181 178 181 180 178 178 177 179 180 176 170 166 164 162 158 153 143 130 127 123 116 115 120 129 129 132 141 158 294 304 316 345 2 338 340 347 342 348 353 350 355
179 168 204 199 196 205 197 199 191 191 200 166 190 232 229 177 171 178 176 174 175 186 195 198 201 200 200 199 203 207 206 207 205 202 199 193 180 179 184 182 184 185 182 184 181 179 181 180 180 182 187 189 193 192 186 185 182 181 184 182 183 184 181 183 185 185 179 174 173 174 170 162 149 138 138 138 131 127 123 132 139 143 148 148 312 314 321 330 327 319 339 357 352 355 0 356 359
174 172 198 200 205 170 171 194 191 192 194 182 198 229 234 184 168 180 183 180 180 188 194 198 202 203 204 202 205 209 210 209 206 202 198 192 185 184 186 184 188 190 185 183 180 179 180 180 181 185 190 189 191 192 185 183 182 182 184 184 189 188 184 185 188 192 187 181 181 179 176 166 160 155 151 148 141 139 138 146 155 156 156 159 281 299 301 310 326 332 341 357 2 2 2 358 358
191 200 197 184 196 188 160 187 195 194 182 193 209 222 233 200 174 175 184 187 187 192 194 197 203 205 206 205 205 209 209 207 207 204 198 192 189 186 186 189 191 192 187 183 181 181 180 181 184 188 191 190 191 192 187 184 185 183 182 186 192 191 189 190 194 198 192 188 186 182 180 175 176 168 161 160 152 148 147 157 167 165 166 177 205 221 241 303 339 343 343 356 4 3 0 356 354
192 203 197 168 184 185 171 160 192 197 190 196 210 220 225 182 164 178 182 189 194 198 198 199 203 205 207 207 206 208 209 210 209 203 197 192 190 189 190 191 192 191 188 185 185 184 182 181 183 189 192 193 194 192 188 187 186 185 186 191 194 194 196 198 202 204 196 193 192 189 186 180 173 165 164 164 157 154 153 162 172 167 166 171 180 190 202 352 359 349 349 356 357 0 1 355 350
173 183 180 152 172 184 192 175 169 192 197 199 195 210 223 194 140 184 185 188 195 203 206 204 205 207 208 209 210 210 214 216 211 203 199 192 187 190 193 192 192 191 188 187 184 182 181 179 181 187 190 192 192 190 185 185 187 187 187 190 191 196 202 204 206 204 197 196 196 196 191 180 168 157 156 153 150 155 159 164 166 159 154 152 162 168 107 37 9 353 353 354 353 356 357 355 347
159 171 178 166 171 188 198 188 167 182 193 203 193 199 216 203 159 184 190 191 199 206 210 211 210 211 211 213 214 213 218 220 211 204 198 189 187 189 192 194 191 190 190 187 182 180 180 178 178 182 187 189 188 186 181 181 185 183 178 178 179 187 193 195 195 192 191 194 196 195 186 176 163 150 148 147 149 155 158 159 156 150 144 140 141 109 38 27 10 355 351 350 354 354 353 357 353
160 168 181 180 180 187 195 190 177 182 189 202 196 194 211 208 177 183 188 192 204 209 210 215 214 212 211 213 216 215 220 218 201 194 186 183 187 186 189 193 191 189 189 186 182 183 183 180 179 181 188 189 186 186 182 178 178 173 169 169 167 173 178 176 177 179 184 188 190 184 175 168 154 143 142 144 151 153 153 152 147 140 130 114 64 29 15 13 8 359 353 350 357 3 3 6 5
163 176 180 185 191 189 193 191 177 182 194 197 188 196 210 206 186 184 185 190 203 209 210 215 214 212 212 213 217 218 220 205 182 180 177 181 186 187 189 191 193 191 189 188 184 186 189 187 186 186 189 190 188 185 181 176 173 171 171 170 168 171 171 168 170 175 180 183 183 174 163 155 144 136 139 146 149 148 147 145 136 121 99 66 42 26 11 9 7 2 2 359 2 16 23 16 17
166 183 180 185 188 175 188 196 176 177 202 191 179 201 209 197 184 184 185 193 203 207 211 216 213 212 214 213 217 219 216 203 188 186 186 186 185 187 191 193 197 196 191 191 190 190 193 192 193 193 189 188 187 181 174 169 168 174 177 173 170 167 164 169 172 174 177 177 172 161 150 143 140 141 146 146 141 141 144 141 126 100 64 38 31 17 8 11 11 9 9 14 15 28 39 27 27
224 190 184 183 172 174 192 195 180 176 204 178 176 201 211 165 168 195 195 200 203 208 215 221 219 217 218 216 218 218 216 211 199 197 195 190 186 188 193 198 200 198 189 187 192 194 195 196 197 194 188 183 179 169 159 154 158 174 179 173 172 167 166 170 169 166 169 168 161 153 147 141 142 147 146 142 143 156 160 156 143 111 52 9 4 8 21 23 22 22 18 25 38 47 51 39 37
226 221 199 178 169 191 199 161 162 166 207 166 164 193 227 188 185 197 199 202 206 210 211 217 224 222 220 218 220 219 219 215 204 203 201 194 192 192 196 200 199 195 185 181 188 193 197 199 199 195 183 174 169 158 152 154 164 177 173 162 160 158 155 157 156 157 163 161 154 151 148 144 146 149 148 151 164 173 172 172 160 119 84 21 29 43 46 45 42 46 44 47 57 63 67 57 50
216 224 222 193 177 193 153 144 154 169 205 185 165 191 216 186 197 200 189 195 209 209 203 209 217 216 213 217 220 218 218 215 206 204 201 194 193 194 199 201 196 190 185 184 189 196 200 201 201 195 172 159 157 153 157 167 175 176 168 157 154 148 143 148 153 159 163 157 150 149 146 143 147 150 148 151 156 161 156 145 136 111 94 77 75 70 68 71 70 68 66 65 65 68 75 71 60
206 203 206 210 195 185 157 158 169 185 196 177 187 210 202 174 212 205 188 196 208 207 205 208 211 213 216 222 221 216 216 213 206 202 195 190 193 196 200 198 188 183 183 186 192 199 201 201 200 182 155 148 152 158 170 177 173 169 167 165 162 156 152 158 164 165 164 155 147 144 140 136 138 138 133 139 146 144 139 128 120 107 94 87 84 86 87 86 82 78 74 73 73 72 74 72 62
195 148 172 191 197 179 163 169 182 184 132 152 197 216 234 213 205 191 188 200 209 210 213 213 212 215 219 223 220 213 214 209 202 200 193 189 191 198 202 194 184 180 179 185 193 195 196 198 182 150 144 146 151 165 181 179 171 168 170 168 164 164 165 165 164 161 156 148 140 136 134 131 130 132 134 145 151 135 132 124 115 108 100 98 98 96 95 91 87 84 80 77 76 72 74 76 68
212 155 162 183 186 166 159 178 185 136 169 194 186 185 221 218 161 164 184 198 211 211 214 216 217 219 220 223 221 217 214 208 203 198 194 192 189 195 199 189 180 180 183 190 191 186 184 177 147 136 150 152 151 168 180 177 177 176 176 169 159 162 164 160 157 153 148 142 137 134 134 134 136 144 140 133 136 130 129 126 117 113 108 107 105 101 98 94 92 88 81 76 75 73 73 77 76
199 149 144 156 166 160 144 186 166 133 204 207 177 179 211 212 150 165 181 197 210 208 213 218 218 220 221 221 221 219 213 207 202 194 192 191 186 193 192 179 174 182 189 188 178 173 167 150 139 147 159 161 165 177 176 176 182 182 180 173 162 159 157 154 151 148 146 143 138 136 138 138 136 136 128 125 134 134 132 128 121 118 114 111 107 104 101 98 93 86 81 77 75 77 76 78 81
158 143 158 136 141 173 161 116 112 180 215 203 173 184 209 218 186 176 185 197 197 194 207 214 215 218 219 218 218 216 208 201 196 188 187 184 181 187 183 171 173 182 184 176 167 164 155 146 156 165 165 169 178 181 176 176 181 184 184 177 169 164 160 155 151 147 147 146 141 137 137 137 132 128 128 133 137 137 133 127 124 121 116 114 111 107 104 98 92 86 83 80 77 80 83 84 84
183 170 185 158 141 154 146 135 202 214 211 171 166 177 200 222 205 179 197 202 195 194 199 204 208 211 211 209 210 211 206 198 192 187 183 180 178 179 175 169 174 177 171 165 162 158 150 152 164 166 166 175 178 176 177 180 183 185 184 180 174 170 166 163 158 154 151 150 144 140 139 138 132 130 134 137 136 135 131 126 124 122 119 117 114 110 105 98 93 88 84 84 86 88 90 88 86
205 190 187 177 165 164 175 181 194 210 200 72 161 168 191 228 231 191 202 205 202 202 202 202 205 205 200 195 197 204 204 198 194 190 185 184 179 174 172 171 175 174 166 161 159 157 156 157 161 162 163 169 172 173 176 181 184 183 180 181 178 173 171 167 163 159 156 153 148 144 144 139 136 137 139 138 135 133 130 128 127 125 122 120 116 111 105 98 92 90 90 93 95 94 93 90 89
202 195 189 186 172 169 180 178 174 189 160 57 157 174 195 224 218 200 202 208 208 206 209 207 197 193 186 180 187 196 199 198 197 192 189 188 181 172 171 173 174 173 167 162 161 161 161 157 158 160 157 161 175 179 177 179 181 178 179 182 177 172 169 165 163 161 159 157 152 147 145 142 142 143 142 138 134 133 131 130 130 127 126 123 118 112 104 97 94 96 99 100 99 97 95 94 93
200 199 191 197 196 180 175 167 168 163 137 99 144 184 192 172 167 195 200 211 212 208 211 182 140 167 171 171 183 193 195 196 195 192 191 187 178 169 168 171 172 171 168 166 165 163 158 157 162 162 156 163 180 181 176 179 179 174 177 178 173 171 168 164 164 163 160 157 152 148 144 144 146 144 141 137 136 136 133 132 132 130 128 124 118 111 102 98 101 104 104 102 102 101 99 98 96
197 174 189 205 217 154 116 112 137 118 125 145 165 203 222 180 77 15 189 216 207 204 197 173 164 162 163 173 186 192 194 192 192 193 191 183 175 168 167 169 168 167 167 166 166 161 156 158 163 163 158 164 176 175 173 178 175 169 173 174 171 170 168 166 165 162 158 154 149 146 144 144 146 142 140 139 139 140 136 135 134 131 130 125 117 110 102 105 109 109 108 106 105 105 103 101 97
171 183 193 185 90 96 114 105 57 100 168 172 172 206 226 217 209 63 117 166 176 187 187 184 177 166 171 183 186 190 192 190 192 192 187 179 174 169 169 169 168 167 165 164 165 163 160 161 162 161 158 164 174 173 167 169 167 164 169 172 170 170 169 168 165 160 155 150 146 145 142 143 144 142 142 142 143 142 139 139 136 133 131 125 117 110 106 112 115 113 111 110 109 108 105 101 98
164 190 182 124 74 18 118 149 130 167 185 167 175 204 199 185 185 99 133 166 172 186 186 180 175 173 182 187 185 188 190 188 191 189 182 176 173 171 170 169 170 170 165 161 161 162 166 170 166 161 162 172 181 173 157 162 169 167 166 167 168 169 170 169 165 160 154 148 145 144 141 141 144 145 146 146 146 144 143 142 139 136 132 126 118 113 113 117 119 116 115 113 111 109 105 101 99
207 186 153 148 189 197 156 161 165 173 180 156 171 210 227 201 194 164 180 186 182 185 182 176 178 184 187 185 184 187 186 185 187 186 181 176 174 173 170 167 169 170 165 158 156 159 166 170 167 168 177 183 182 169 157 165 172 169 165 165 167 169 170 168 163 158 153 147 145 143 141 141 144 147 150 151 150 148 146 145 142 139 134 127 120 117 121 123 121 119 117 115 112 109 105 102 100
231 174 166 207 246 176 166 150 163 176 177 168 168 192 229 215 202 190 196 197 184 176 178 185 190 189 184 178 180 184 183 184 186 186 182 175 172 173 169 166 169 169 162 155 152 153 159 162 165 177 188 184 174 167 164 164 167 168 165 164 166 171 172 168 162 158 153 148 147 144 142 142 145 149 153 154 153 151 150 147 145 142 135 129 125 124 127 127 124 121 118 116 113 109 105 103 101
183 185 179 179 167 179 196 146 98 193 177 175 183 200 213 204 200 203 203 198 184 178 183 193 194 186 179 177 178 181 183 184 185 184 178 171 169 169 165 163 167 167 159 153 152 151 153 158 164 174 182 181 174 170 168 162 161 167 166 164 169 174 173 167 162 159 153 150 150 147 145 146 147 152 155 156 156 153 152 149 147 144 137 132 130 131 132 129 126 123 120 116 113 109 106 104 102
180 191 178 175 175 179 192 180 155 327 163 161 184 228 218 181 185 221 213 198 189 187 188 188 184 179 179 181 180 181 183 184 185 181 173 166 166 166 163 161 164 163 156 154 154 152 151 155 161 168 176 182 177 172 173 167 160 163 166 167 174 175 172 167 162 159 156 155 154 151 151 151 151 154 157 158 157 154 153 152 149 144 139 136 135 135 134 131 127 124 121 117 114 111 108 105 101